Simultaneous Nadir Overpasses (SNOs) Predictions

Prediction of SNOs between LANDSAT-8 and METOP-B Satellite Orbit:

Table of predicted SNOs for the next 14.0 days since TLE Epoch: 12/4/2021
Index Date (LANDSAT-8) Time (LANDSAT-8) Lat,Lon (LANDSAT-8) SZA (LANDSAT-8 ) Date (METOP-B) Time (METOP-B) Lat,Lon (METOP-B) SZA (METOP-B ) Distance(km) Time Diff (sec)
1 12/06/2021 04:57:16 81.12, 145.55 105.78 12/06/2021 04:56:29 81.12, 145.42 105.75 2.14 47
2 12/06/2021 05:46:42 -81.14, -46.49 74.18 12/06/2021 05:47:08 -81.14, -46.62 74.18 2.15 26
3 12/09/2021 00:31:30 81.14,-147.65 106.10 12/09/2021 00:30:49 81.14,-147.52 106.10 2.17 41
4 12/09/2021 01:20:56 -81.17, 20.34 73.85 12/09/2021 01:21:28 -81.16, 20.44 73.82 1.82 32
5 12/11/2021 20:05:45 81.14, -81.27 106.31 12/11/2021 20:05:11 81.14, -81.26 106.29 0.34 34
6 12/11/2021 20:55:11 -81.16, 86.74 73.64 12/11/2021 20:55:50 -81.16, 86.72 73.63 0.71 39
7 12/14/2021 15:39:59 81.13, -14.94 106.44 12/14/2021 15:39:32 81.13, -15.02 106.42 1.33 27
8 12/14/2021 16:29:25 -81.16, 153.09 73.51 12/14/2021 16:30:11 -81.15, 152.96 73.50 2.31 46
9 12/17/2021 11:14:13 81.15, 51.70 106.56 12/17/2021 11:13:53 81.14, 51.56 106.53 2.42 20



Historial Predications of SNOs between LANDSAT-8 and METOP-B
